Powrót do katalogu

STARLINK-37359

AktywnyŁącznośćVLEO
NORAD 69188·PAYLOAD·🇺🇸 United States

Wystrzelony May 25, 2026 z Cape Canaveral Space Force Station

Loading…

Następne Przeloty (najbliższe 24 godziny)

TLE

ŚwieżeSource: CelesTrak SupGP

Epoka: Sep 14, 2026, 16:20 UTC

1 69188C 26114G   26257.68104167  .00032992  00000+0  97466-3 0  2577
2 69188  53.1559 141.1298 0001238  99.3641 130.3393 15.34377684    15

Śledź STARLINK-37359 w czasie rzeczywistym z AllMySat

Download on the App Store